Temp
2 2 2 2 2 2 2 2 2 2 2 2 2 2 2 2 3 3 3 3 3 3 2 2 2 2 1 1 1 1 1 1 1 1 1 1 1 1 1 1 1 1
2 2 2 2 2 2 2 2 2 2 2 2 2 2 3 2 2 2 2 3 3 3 2 2 2 2 2 1 1 1 1 0 0 0 0 0 0 0 0 0 1 1
2 2 2 2 2 2 2 2 2 2 2 2 2 3 2 2 2 2 2 2 3 3 2 2 2 2 2 1 1 1 1 0 0 0 0 0 0 0 0 0 0 1
2 2 2 2 2 2 2 2 2 2 2 2 3 3 2 2 2 2 2 2 2 2 2 2 2 2 2 2 1 1 0 -0 -0 -0 0 -0 -0 -0 0 0 0 0
2 2 2 2 2 2 2 2 2 2 2 2 3 3 2 2 2 2 2 2 2 2 2 2 2 2 2 2 1 1 0 -0 -0 -0 -0 -0 -0 -0 -0 -0 0 0
1 1 1 1 1 2 2 2 2 2 2 2 3 2 2 2 2 2 2 2 2 2 2 2 2 2 2 2 1 1 0 -0 -1 -1 -0 -0 -0 -0 -0 -0 0 0
1 1 1 1 1 1 2 2 2 2 2 2 2 2 2 2 2 2 2 2 2 2 1 2 2 1 1 1 1 1 0 -0 -0 -1 -0 -0 -0 -0 -0 -0 0 0
1 1 1 1 1 1 1 2 2 2 2 2 2 2 2 2 1 2 2 2 2 1 1 1 1 1 1 1 1 1 0 0 -0 -0 -0 -0 0 -0 -0 -0 0 0
1 1 1 1 1 1 1 2 2 2 2 2 2 2 2 1 1 2 2 2 1 1 1 1 1 1 1 1 1 1 0 0 0 0 0 0 0 0 0 0 0 0
1 1 1 1 1 1 1 1 1 2 2 2 2 2 1 1 1 1 2 1 1 1 1 1 1 2 2 1 1 1 1 1 1 1 0 0 1 0 0 0 0 1
1 1 1 1 1 1 1 1 1 1 2 2 2 2 1 1 1 1 1 1 1 1 1 1 1 2 2 1 1 1 1 1 1 1 1 1 1 1 1 1 1 1
1 1 1 1 1 1 1 1 1 1 1 1 2 1 1 1 1 1 1 1 1 1 1 1 1 2 2 1 1 1 1 1 1 1 1 1 1 1 1 1 1 1
1 1 1 1 1 1 1 1 1 1 1 1 1 1 1 1 1 1 1 1 1 1 1 1 1 1 1 1 1 1 1 1 1 1 1 1 1 1 1 1 1 1
1 1 1 1 1 1 1 1 1 1 1 1 1 1 1 1 1 1 1 1 1 1 1 1 1 1 1 1 1 1 1 1 1 1 1 1 1 1 1 1 1 1
1 1 1 1 1 1 1 1 1 1 1 1 1 1 1 1 1 0 0 1 1 1 1 1 1 1 1 1 1 1 1 1 1 1 1 1 1 1 2 2 2 2
1 1 1 1 1 1 1 1 0 0 0 0 1 1 1 1 0 0 0 1 0 0 1 1 1 1 1 1 1 1 1 1 1 1 1 2 2 2 2 2 2 2
1 1 1 1 1 1 1 0 0 0 0 0 0 1 1 1 0 0 0 0 0 0 1 1 1 1 1 1 1 1 1 1 1 1 2 2 2 2 2 2 2 2
1 1 1 1 1 1 1 0 0 0 0 0 0 0 0 0 0 0 0 0 0 0 0 0 1 1 1 1 1 1 1 1 2 2 2 2 2 2 2 2 2 2
2 1 1 1 1 1 1 0 0 0 -0 -0 -0 0 0 0 0 0 0 0 0 0 0 0 0 1 1 1 1 1 1 1 2 2 2 2 2 2 2 2 2 2
2 1 1 1 1 1 1 0 0 0 -0 -0 -0 -0 0 0 0 0 0 0 0 0 0 0 0 0 1 1 1 1 1 1 1 2 2 2 2 2 2 2 2 2
2 1 1 1 1 1 1 0 0 -0 -0 -0 -0 -0 -0 -0 -0 -0 -0 0 -0 -0 0 0 0 0 1 1 1 1 1 1 1 1 2 2 2 2 2 2 2 2
2 1 1 1 1 1 1 0 0 -0 -0 -0 -0 -0 -0 -0 -0 -0 -0 -0 -0 -0 -0 -0 0 0 0 1 1 1 1 2 1 1 1 2 2 2 2 2 2 2
2 1 1 1 1 1 1 0 -0 -0 -0 -0 -0 -0 -0 -0 -0 -0 -0 -0 -0 -0 -0 -0 -0 0 0 1 1 1 1 2 2 2 2 1 2 2 2 2 2 2
2 1 1 1 1 1 1 0 -0 -0 -0 -0 -0 -0 -0 -1 -1 -1 -0 -0 -0 -0 -0 -0 -0 -0 0 0 0 1 1 1 1 2 2 1 1 2 2 2 2 2
1 1 1 1 1 1 1 0 -0 -0 -0 -0 -0 -0 -0 -1 -1 -1 -1 -1 -0 -0 -0 -0 -0 -0 -0 0 0 0 1 1 1 1 2 1 1 2 2 2 2 2
1 1 1 1 1 1 1 0 0 -0 -0 -0 -0 -1 -1 -0 -1 -1 -1 -1 -1 -0 -0 -0 -0 -0 -0 -0 0 0 0 1 1 1 1 1 1 1 2 2 1 2
Height
3154 3153 3152 3150 3149 3147 3146 3144 3144 3143 3142 3141 3141 3140 3139 3139 3139 3138 3137 3137 3136 3135 3134 3133 3133 3132 3131 3131 3130 3130 3129 3129 3129 3128 3128 3128 3128 3128 3128 3128 3128 3128
3153 3152 3151 3149 3148 3146 3145 3143 3142 3141 3141 3140 3138 3138 3137 3137 3137 3137 3136 3136 3135 3134 3133 3132 3132 3131 3130 3130 3129 3129 3128 3128 3128 3127 3127 3127 3127 3127 3127 3127 3127 3127
3152 3151 3150 3148 3147 3145 3144 3143 3141 3140 3139 3138 3137 3136 3136 3136 3136 3135 3135 3135 3134 3133 3132 3132 3131 3130 3129 3128 3128 3127 3127 3127 3127 3127 3127 3127 3127 3126 3126 3126 3126 3126
3151 3150 3149 3148 3146 3145 3143 3142 3140 3139 3138 3136 3135 3135 3135 3135 3135 3134 3133 3133 3133 3132 3132 3131 3130 3129 3128 3127 3127 3126 3126 3126 3126 3126 3126 3126 3126 3125 3125 3125 3125 3125
3150 3149 3148 3147 3145 3144 3143 3142 3140 3139 3137 3135 3134 3134 3134 3134 3133 3132 3132 3132 3131 3131 3131 3130 3129 3128 3127 3126 3126 3125 3125 3125 3125 3125 3126 3126 3125 3125 3124 3124 3124 3124
3149 3148 3147 3146 3145 3143 3142 3141 3139 3138 3136 3134 3133 3133 3133 3132 3132 3131 3131 3131 3130 3130 3129 3129 3128 3127 3127 3126 3125 3125 3125 3125 3125 3124 3125 3125 3124 3124 3123 3123 3123 3123
3147 3147 3146 3145 3144 3143 3141 3139 3138 3137 3135 3134 3132 3132 3131 3131 3130 3130 3130 3130 3129 3129 3128 3128 3128 3127 3126 3125 3125 3125 3124 3124 3124 3124 3123 3123 3123 3123 3123 3122 3122 3122
3146 3146 3145 3144 3143 3142 3140 3139 3137 3136 3134 3132 3131 3131 3130 3129 3129 3129 3129 3129 3128 3128 3128 3128 3127 3127 3126 3125 3125 3125 3124 3123 3123 3123 3122 3122 3122 3122 3122 3122 3121 3121
3145 3144 3144 3143 3142 3141 3140 3138 3136 3134 3133 3131 3130 3129 3129 3129 3128 3128 3128 3128 3127 3127 3127 3127 3127 3126 3126 3125 3125 3124 3123 3123 3122 3122 3122 3122 3122 3122 3121 3121 3121 3121
3143 3143 3143 3142 3141 3140 3139 3137 3135 3134 3132 3130 3129 3129 3128 3128 3127 3127 3127 3127 3126 3126 3126 3126 3126 3126 3125 3125 3124 3123 3122 3122 3121 3121 3121 3121 3121 3121 3121 3121 3121 3120
3141 3142 3141 3141 3140 3139 3138 3137 3135 3133 3132 3130 3128 3128 3127 3127 3126 3126 3126 3126 3125 3125 3125 3125 3125 3125 3125 3124 3124 3123 3122 3121 3121 3121 3121 3121 3120 3120 3120 3120 3120 3120
3140 3140 3140 3139 3138 3138 3137 3136 3135 3133 3131 3129 3128 3127 3126 3126 3125 3125 3125 3125 3125 3125 3125 3124 3124 3124 3124 3124 3123 3122 3121 3121 3121 3120 3120 3120 3120 3120 3120 3120 3120 3120
3138 3138 3138 3138 3137 3137 3136 3135 3134 3132 3130 3129 3127 3126 3125 3125 3124 3124 3124 3123 3124 3124 3124 3124 3123 3123 3124 3123 3122 3121 3121 3120 3120 3120 3120 3120 3120 3120 3120 3120 3120 3119
3136 3136 3136 3136 3136 3136 3135 3134 3133 3132 3130 3128 3126 3125 3125 3124 3123 3123 3123 3123 3123 3123 3123 3123 3123 3123 3123 3122 3121 3121 3120 3120 3120 3119 3119 3119 3119 3119 3119 3119 3119 3119
3134 3135 3135 3135 3135 3134 3134 3133 3132 3131 3130 3128 3126 3125 3124 3123 3122 3122 3122 3122 3122 3122 3122 3122 3122 3122 3122 3122 3121 3120 3120 3120 3119 3119 3119 3119 3119 3119 3119 3119 3118 3118
3132 3133 3133 3133 3133 3133 3133 3132 3131 3130 3129 3128 3126 3124 3123 3122 3122 3121 3121 3121 3122 3122 3122 3122 3121 3121 3121 3121 3120 3120 3119 3119 3119 3119 3118 3118 3118 3118 3118 3118 3118 3118
3131 3131 3131 3131 3132 3131 3131 3131 3130 3129 3128 3127 3126 3124 3122 3122 3121 3120 3120 3121 3121 3121 3121 3121 3120 3120 3120 3120 3120 3119 3119 3119 3118 3118 3118 3118 3118 3118 3117 3117 3117 3118
3129 3129 3129 3130 3130 3130 3130 3130 3129 3128 3127 3127 3125 3123 3122 3121 3120 3120 3120 3120 3120 3120 3120 3120 3120 3119 3119 3119 3119 3119 3119 3118 3118 3117 3117 3117 3117 3117 3117 3117 3117 3117
3128 3128 3127 3128 3128 3128 3128 3128 3128 3127 3126 3126 3124 3123 3122 3121 3120 3119 3119 3119 3119 3119 3119 3119 3119 3119 3118 3119 3119 3118 3118 3118 3117 3117 3117 3117 3117 3116 3116 3117 3117 3117
3126 3126 3126 3126 3126 3127 3127 3127 3127 3126 3125 3124 3123 3122 3121 3120 3119 3119 3118 3119 3119 3118 3118 3118 3118 3118 3118 3118 3118 3117 3117 3117 3116 3116 3116 3116 3116 3116 3116 3116 3117 3117
3125 3125 3125 3125 3125 3125 3125 3125 3125 3125 3124 3123 3122 3122 3121 3120 3118 3118 3117 3118 3118 3117 3117 3117 3117 3117 3117 3117 3116 3116 3116 3116 3116 3115 3115 3115 3115 3115 3116 3116 3116 3117
3123 3123 3123 3123 3124 3124 3124 3124 3124 3123 3123 3122 3121 3120 3120 3119 3118 3117 3116 3117 3117 3117 3116 3116 3116 3116 3116 3116 3116 3115 3115 3115 3115 3115 3115 3114 3114 3115 3115 3115 3116 3116
3121 3121 3121 3121 3122 3122 3122 3122 3122 3121 3121 3121 3120 3119 3119 3118 3117 3116 3116 3115 3116 3116 3115 3115 3115 3115 3115 3115 3115 3114 3114 3114 3114 3114 3114 3114 3114 3114 3114 3115 3115 3115
3118 3119 3119 3119 3119 3120 3121 3120 3120 3120 3119 3119 3118 3118 3117 3117 3116 3116 3115 3114 3114 3115 3114 3114 3114 3114 3114 3114 3114 3114 3113 3113 3113 3113 3113 3113 3113 3113 3113 3114 3114 3114
3116 3116 3117 3117 3117 3118 3119 3118 3118 3118 3117 3117 3117 3116 3116 3116 3115 3115 3114 3113 3113 3113 3113 3113 3113 3113 3113 3113 3113 3113 3113 3112 3112 3112 3112 3112 3112 3112 3112 3113 3113 3113
3113 3114 3114 3115 3116 3116 3117 3116 3116 3116 3115 3115 3115 3115 3114 3114 3114 3114 3113 3113 3112 3112 3112 3112 3112 3112 3112 3112 3112 3112 3112 3112 3111 3111 3111 3111 3111 3110 3111 3111 3111 3112
Wind_Speed
15 16 15 16 18 19 19 18 16 14 14 13 13 14 15 14 12 12 13 14 14 14 13 12 10 8 7 8 8 8 8 7 6 6 6 5 4 4 4 4 4 5
15 16 16 17 18 18 19 18 16 14 13 13 13 15 15 14 12 12 13 14 14 14 13 12 11 9 8 9 9 9 9 7 6 6 5 5 4 4 4 3 4 4
15 16 16 17 18 18 18 18 17 15 13 13 14 14 15 13 12 12 13 13 14 14 13 12 11 10 9 9 9 10 9 8 7 6 6 5 4 4 4 3 4 4
15 15 16 17 17 17 17 17 17 15 13 13 14 13 13 12 11 12 13 13 13 13 12 11 11 10 10 9 9 9 8 7 6 6 5 5 5 5 5 4 4 5
14 14 15 16 16 17 17 16 15 14 13 13 14 12 11 10 10 11 12 12 12 12 11 10 10 9 8 8 7 7 6 6 5 5 5 5 5 5 6 5 6 6
14 14 14 15 15 16 17 15 14 13 11 12 13 11 9 8 9 10 11 11 11 10 9 9 9 8 7 6 5 4 4 4 5 5 5 5 5 6 7 7 7 8
14 13 14 14 14 15 16 15 14 13 11 11 11 9 8 8 8 9 9 9 9 9 8 8 7 6 5 4 3 2 1 2 3 5 6 6 7 7 8 8 8 9
13 13 13 14 13 14 15 15 15 14 12 11 11 8 7 8 8 8 7 7 8 7 7 6 5 4 3 2 2 2 1 1 2 4 5 5 5 6 6 7 7 7
13 13 13 13 13 13 13 14 15 15 13 12 10 8 7 8 8 8 7 6 6 6 6 5 4 3 2 1 2 2 1 1 2 2 3 3 3 4 4 5 6 6
13 13 12 12 12 12 12 14 16 16 15 13 10 8 7 7 7 6 6 5 5 6 6 6 4 3 1 0 1 1 1 1 1 1 2 2 3 3 3 4 4 5
13 13 12 11 11 11 11 13 15 16 15 13 10 8 7 6 6 5 5 4 4 5 6 6 5 3 2 0 1 1 1 1 1 1 1 2 2 2 3 3 3 3
13 13 12 11 10 10 11 12 14 16 17 14 11 9 7 6 5 4 4 4 5 5 6 6 6 4 2 1 2 2 2 1 1 1 1 1 2 2 3 3 3 3
13 14 12 10 10 10 10 12 14 15 17 16 12 9 7 6 5 4 4 5 5 5 5 6 6 5 2 1 2 2 2 1 1 1 1 2 2 2 3 3 3 2
13 14 11 10 9 9 10 12 14 14 16 17 13 10 7 6 5 4 5 6 5 5 5 5 6 5 3 2 3 2 2 1 1 2 2 2 3 3 2 2 2 2
12 13 11 9 9 9 10 12 13 14 15 16 14 10 8 6 5 4 5 6 5 4 5 5 5 5 3 3 3 3 2 2 2 2 2 3 3 2 2 2 2 2
11 11 10 9 8 8 9 11 13 13 13 15 15 11 8 6 4 5 6 5 4 4 5 5 5 5 3 3 3 3 3 3 3 3 2 2 2 2 2 2 3 4
9 10 9 8 8 8 9 11 12 12 12 13 14 12 8 5 4 5 6 5 4 4 4 4 5 4 4 3 4 4 4 3 3 3 2 2 2 3 3 4 5 5
8 8 8 8 7 7 8 10 11 12 12 12 13 12 8 5 4 5 6 5 5 5 5 5 5 5 4 4 5 5 5 4 3 3 2 2 2 4 5 5 5 6
8 7 7 7 7 7 7 9 10 11 11 11 12 13 9 5 4 5 6 5 5 5 5 5 6 5 5 5 5 6 5 4 3 2 2 2 4 5 5 5 6 6
9 7 6 7 7 7 7 8 9 10 11 11 11 12 11 7 4 5 6 5 5 5 6 6 6 6 6 6 6 6 5 5 3 3 3 3 5 6 6 6 6 6
10 8 7 7 7 7 7 8 9 10 10 11 11 11 11 9 6 5 6 6 5 6 6 7 7 7 7 6 6 6 6 5 4 4 4 4 5 5 5 6 6 6
11 11 10 9 8 7 7 8 9 10 10 10 10 10 11 10 7 6 7 7 6 6 7 7 8 8 7 7 7 6 6 5 5 5 5 5 5 5 6 7 7 6
12 12 12 11 10 8 8 9 10 10 10 10 10 10 10 10 9 7 7 8 7 7 7 8 8 8 8 8 7 7 6 5 5 6 6 6 6 6 7 7 6 7
13 13 13 13 12 10 10 11 11 11 11 11 11 10 10 10 9 8 7 9 9 8 8 9 8 8 9 8 8 8 7 7 6 6 6 7 8 8 8 7 7 7
14 14 13 14 13 12 12 12 12 12 13 12 11 11 10 9 9 9 8 9 10 9 9 9 9 9 9 9 9 8 8 8 8 8 8 8 9 10 9 9 8 8
15 15 14 13 13 13 13 13 14 14 14 14 13 12 11 10 9 9 8 9 10 11 10 10 10 10 9 9 9 9 10 10 10 10 9 9 10 10 10 10 10 9
Wind_Direction
336 338 339 341 341 338 333 328 321 311 304 297 283 272 273 280 291 301 308 313 314 311 310 308 309 309 300 296 299 300 298 295 290 283 283 291 299 295 281 272 268 265
331 333 335 338 339 337 333 327 321 312 304 298 287 277 275 278 286 294 300 306 308 308 310 310 312 310 299 292 292 291 288 283 282 282 282 291 299 297 290 281 273 267
325 328 331 334 335 335 333 326 320 314 307 297 289 284 281 280 282 286 292 299 303 307 311 312 311 308 300 291 283 281 279 273 272 274 278 285 289 292 290 285 280 272
318 323 327 330 332 333 332 326 318 313 308 300 293 289 287 284 282 283 288 295 301 308 312 311 308 306 302 293 281 275 271 262 260 266 275 285 290 295 296 295 292 283
308 317 322 326 329 331 330 325 317 312 306 297 294 295 294 291 282 281 286 293 302 309 312 309 307 307 307 303 294 278 262 249 252 261 269 276 281 285 284 284 283 281
300 310 318 322 327 329 329 326 320 317 309 297 297 301 301 293 280 278 284 293 303 309 308 307 308 311 316 320 317 293 261 244 247 256 257 257 259 262 266 269 270 272
297 306 314 319 325 328 329 329 327 325 316 303 302 307 304 293 282 280 285 295 305 307 303 304 309 314 323 338 351 347 286 232 232 245 251 251 252 254 258 261 264 267
292 300 309 316 321 326 331 334 334 332 325 312 310 313 308 296 287 287 292 301 307 300 295 300 307 312 324 350 27 55 82 170 204 233 248 253 252 249 251 254 258 262
284 293 302 311 318 325 334 341 342 341 333 321 317 316 309 298 292 296 304 310 307 295 289 292 294 297 314 352 49 88 144 192 206 231 247 255 252 244 241 242 246 252
277 286 296 307 315 323 334 346 350 347 339 326 320 318 310 302 299 305 313 313 300 288 283 283 284 285 299 354 103 148 189 206 211 229 238 246 242 230 226 226 230 234
271 280 290 302 312 319 332 347 353 352 346 334 325 323 314 308 310 315 314 305 287 276 277 279 281 284 289 283 184 198 216 212 179 180 211 223 213 202 197 197 204 209
266 275 285 298 306 312 325 342 350 354 354 345 332 326 320 318 325 326 315 299 281 273 275 278 281 280 272 233 211 214 228 214 180 186 202 203 196 185 176 174 180 189
261 270 280 291 299 303 317 335 344 351 356 353 341 329 327 329 336 332 310 291 284 280 274 270 273 275 264 235 229 226 221 209 202 202 194 193 190 174 165 165 170 186
257 266 275 284 289 295 309 328 338 344 352 355 348 335 335 342 341 328 300 286 287 284 270 261 263 264 253 234 237 231 205 182 182 182 176 180 176 163 161 163 165 178
250 260 270 277 281 289 302 319 332 338 346 354 352 341 341 352 343 314 292 288 289 277 266 261 257 254 239 223 230 228 193 168 167 172 174 176 172 166 167 167 161 153
237 249 262 271 276 285 298 314 327 333 340 350 353 348 347 358 341 304 295 295 290 274 266 264 260 252 233 214 218 218 195 171 170 183 187 186 185 176 170 164 152 141
227 237 251 263 273 284 298 310 322 330 335 344 353 355 355 357 334 306 305 305 293 280 276 270 264 254 231 206 204 209 203 187 182 197 205 200 190 174 166 161 149 138
223 229 241 254 269 284 297 309 319 327 332 339 352 359 1 354 332 312 308 308 298 289 285 279 273 261 237 209 198 200 203 199 197 208 214 203 183 172 169 160 146 140
231 232 236 247 264 280 295 308 317 325 329 334 348 360 3 354 333 314 306 306 301 293 287 282 276 264 245 220 201 197 199 199 206 223 217 195 182 180 174 160 147 149
239 242 240 245 258 272 288 303 313 320 325 329 341 355 2 357 335 314 306 303 299 292 287 283 277 265 251 231 209 198 195 192 200 228 229 199 189 185 174 161 157 161
243 248 247 245 251 262 277 294 306 314 319 324 332 346 358 0 344 314 306 303 297 290 286 283 278 267 255 241 222 206 198 191 191 211 227 215 200 190 175 166 167 172
246 251 252 250 251 257 267 282 296 305 311 316 323 335 350 359 353 322 304 302 298 290 286 285 282 273 260 246 234 218 206 200 192 198 213 217 208 197 186 179 176 177
246 249 249 250 250 253 262 273 283 292 299 306 313 323 338 353 356 334 306 299 298 291 286 285 282 277 265 250 240 229 218 212 205 201 203 205 208 207 198 189 186 185
243 246 248 250 249 249 256 264 271 278 285 292 302 311 322 339 351 344 315 297 294 291 286 284 282 278 269 255 243 234 227 222 217 213 204 196 204 212 206 197 198 198
236 238 240 243 244 245 250 257 264 268 273 279 289 299 307 320 336 343 328 301 290 288 284 282 281 278 271 260 247 235 232 229 225 221 211 199 203 212 208 202 206 208
231 233 232 233 236 241 247 251 255 259 265 271 277 285 294 304 316 331 332 313 293 286 282 280 279 278 273 264 251 238 232 232 230 228 220 208 208 215 212 207 208 211